TimeCST,TemperatureF,Dew PointF,Humidity,Sea Level PressureIn,VisibilityMPH,Wind Direction,Wind SpeedMPH,Gust SpeedMPH,PrecipitationIn,Events,Conditions,WindDirDegrees,DateUTC
12:53 AM,19.9,12.0,71,30.29,10.0,East,6.9,-,N/A,,Clear,100,2012-12-05 06:53:00
1:53 AM,18.0,12.0,78,30.27,10.0,East,6.9,-,N/A,,Clear,80,2012-12-05 07:53:00
2:53 AM,19.9,12.0,71,30.25,10.0,East,6.9,-,N/A,,Clear,100,2012-12-05 08:53:00
3:53 AM,19.0,12.0,74,30.21,10.0,East,4.6,-,N/A,,Clear,100,2012-12-05 09:53:00
4:53 AM,18.0,10.9,74,30.17,10.0,Calm,Calm,-,N/A,,Clear,0,2012-12-05 10:53:00
5:53 AM,18.0,12.0,78,30.14,10.0,Calm,Calm,-,N/A,,Clear,0,2012-12-05 11:53:00
6:53 AM,19.0,12.9,77,30.12,10.0,SSE,3.5,-,N/A,,Clear,150,2012-12-05 12:53:00
8:53 AM,23.0,17.1,78,30.05,10.0,SSE,5.8,-,N/A,,Clear,150,2012-12-05 14:53:00
9:53 AM,30.0,21.0,69,30.02,10.0,South,12.7,-,N/A,,Clear,180,2012-12-05 15:53:00
10:53 AM,34.0,21.0,59,29.98,-9999.0,South,18.4,-,N/A,,Clear,180,2012-12-05 16:53:00
11:53 AM,37.9,21.0,51,29.92,-9999.0,South,20.7,28.8,N/A,,Clear,180,2012-12-05 17:53:00
12:12 PM,37.4,21.2,52,29.86,10.0,South,18.4,23.0,N/A,,Clear,170,2012-12-05 18:12:00
12:53 PM,41.0,21.9,47,29.87,10.0,South,15.0,-,N/A,,Clear,170,2012-12-05 18:53:00
1:53 PM,43.0,21.9,43,29.82,10.0,SSE,15.0,-,N/A,,Clear,160,2012-12-05 19:53:00
2:53 PM,44.1,23.0,43,29.79,10.0,SSE,11.5,-,N/A,,Clear,150,2012-12-05 20:53:00
3:53 PM,43.0,23.0,45,29.78,10.0,SSE,10.4,-,N/A,,Clear,160,2012-12-05 21:53:00
4:53 PM,37.9,21.9,53,29.77,10.0,SE,4.6,-,N/A,,Clear,140,2012-12-05 22:53:00
5:53 PM,35.1,21.9,59,29.73,10.0,SE,5.8,-,N/A,,Clear,130,2012-12-05 23:53:00
6:53 PM,33.1,21.9,64,29.72,10.0,Calm,Calm,-,N/A,,Clear,0,2012-12-06 00:53:00
7:53 PM,33.1,21.9,64,29.72,10.0,Calm,Calm,-,N/A,,Clear,0,2012-12-06 01:53:00
8:53 PM,34.0,21.9,61,29.71,10.0,SSW,5.8,-,N/A,,Partly Cloudy,210,2012-12-06 02:53:00
9:53 PM,35.1,25.0,67,29.71,10.0,NW,5.8,-,N/A,,Partly Cloudy,310,2012-12-06 03:53:00
10:53 PM,35.6,24.8,65,29.68,10.0,NNW,4.6,-,N/A,,Partly Cloudy,330,2012-12-06 04:53:00
11:53 PM,36.0,24.1,62,29.73,10.0,WNW,3.5,-,N/A,,Mostly Cloudy,300,2012-12-06 05:53:00